カタログに戻る

SIRIUS FM-5

運用中通信GEO
NORAD 35493·PAYLOAD·🇺🇸 United States

打ち上げ Jun 30, 2009 から Baikonur Cosmodrome

Loading…

TLE

最新Source: Space-Track

元期: Sep 14, 2026, 21:56 UTC

1 35493U 09034A   26257.91446072 -.00000207  00000-0  00000-0 0  9995
2 35493   0.0432 267.4659 0000882 160.7495 168.7305  1.00271280 47545

AllMySatでSIRIUS FM-5をリアルタイム追跡

Download on the App Store